Weather History for Glenwood, MN

Change the Weather History Date:

Saturday, September 28, 2013

  Actual Average Record
Temperature  
Mean Temperature 55 °F -  
Max Temperature 66 °F 65 °F 87 °F (1956)
Min Temperature 44 °F 41 °F 25 °F (1961)
Degree Days  
Heating Degree Days 10    
Growing Degree Days 5 (Base 50)    
Moisture  
Dew Point 50 °F    
Average Humidity 86    
Maximum Humidity 100    
Minimum Humidity 59    
Precipitation  
Precipitation 0.32 in - - ()
Sea Level Pressure  
Sea Level Pressure 29.76 in    
Wind  
Wind Speed 10 mph (West)    
Max Wind Speed 23 mph    
Max Gust Speed 32 mph    
Visibility 9 miles    
Events Rain    
Averages and records for this station are not official NWS values.
T = Trace of Precipitation, MM = Missing Value Source: NWS Daily Summary

Daily Weather History Graph

Daily Weather History Graph

Search for Another Location

Airport:

Trip Planner

Search our weather history database for the weather conditions in past years. The results will help you decide how hot, cold, wet, or windy it might be!

Date:

Astronomy

Sep. 28, 2013 Rise Set
Actual Time 7:16 AM CDT 7:06 PM CDT
Civil Twilight 6:46 AM CDT 7:36 PM CDT
Nautical Twilight 6:11 AM CDT 8:10 PM CDT
Astronomical Twilight 5:36 AM CDT 8:45 PM CDT
Moon 12:48 AM CDT (9/28) 3:40 PM CDT (9/28)
Length of Visible Light 12h 49m
Length of Day
11h 50m
Waning Crescent, 36% of the Moon is Illuminated
Sep 28
Waning Crescent
Oct 4
New
Oct 11
First Quarter
Oct 18
Full
Oct 26
Last Quarter

Hourly Weather History & Observations

Time (CDT) Temp. Windchill Dew Point Humidity Pressure Visibility Wind Dir Wind Speed Gust Speed Precip Events Conditions
12:13 AM 59.0 °F - 55.4 °F 88% 29.74 in 10.0 mi NW 5.8 mph - N/A   Scattered Clouds
12:33 AM 57.2 °F - 55.4 °F 94% 29.75 in 10.0 mi WNW 10.4 mph - N/A   Clear
12:53 AM 57.2 °F - 55.4 °F 94% 29.73 in 10.0 mi North 5.8 mph - N/A   Clear
1:13 AM 57.2 °F - 55.4 °F 94% 29.72 in 10.0 mi North 8.1 mph - N/A   Clear
1:34 AM 59.0 °F - 55.4 °F 88% 29.72 in 10.0 mi NNE 5.8 mph - N/A   Scattered Clouds
1:53 AM 57.2 °F - 55.4 °F 94% 29.71 in 10.0 mi NE 6.9 mph - N/A   Scattered Clouds
2:13 AM 57.2 °F - 55.4 °F 94% 29.70 in 10.0 mi ENE 5.8 mph - N/A   Scattered Clouds
2:33 AM 57.2 °F - 55.4 °F 94% 29.70 in 10.0 mi ENE 5.8 mph - N/A   Scattered Clouds
2:53 AM 59.0 °F - 57.2 °F 94% 29.68 in 10.0 mi ENE 5.8 mph - N/A   Mostly Cloudy
3:13 AM 59.0 °F - 57.2 °F 94% 29.67 in 10.0 mi East 6.9 mph - N/A   Mostly Cloudy
3:33 AM 60.8 °F - 57.2 °F 88% 29.65 in 10.0 mi ESE 8.1 mph - N/A   Mostly Cloudy
3:54 AM 64.4 °F - 59.0 °F 83% 29.64 in 10.0 mi SE 10.4 mph - N/A   Scattered Clouds
4:13 AM 66.2 °F - 60.8 °F 83% 29.66 in 10.0 mi WSW 17.3 mph 23.0 mph N/A   Mostly Cloudy
4:33 AM 60.8 °F - 55.4 °F 82% 29.66 in 10.0 mi West 12.7 mph - N/A   Mostly Cloudy
4:53 AM 55.4 °F - 53.6 °F 94% 29.64 in 10.0 mi WNW 8.1 mph - N/A   Scattered Clouds
5:13 AM 55.4 °F - 53.6 °F 94% 29.65 in 7.0 mi NW 4.6 mph - N/A   Scattered Clouds
5:33 AM 55.4 °F - 53.6 °F 94% 29.64 in 5.0 mi NW 3.5 mph - N/A Rain Rain
5:53 AM 55.4 °F - 53.6 °F 94% 29.63 in 7.0 mi Calm Calm - 0.04 in Rain Light Rain
6:13 AM 55.4 °F - 53.6 °F 94% 29.61 in 5.0 mi East 5.8 mph - N/A   Scattered Clouds
6:34 AM 55.4 °F - 55.4 °F 100% 29.62 in 5.0 mi Calm Calm - 0.02 in Rain Rain
6:53 AM 55.4 °F - 55.4 °F 100% 29.63 in 5.0 mi WSW 10.4 mph - 0.05 in Rain Light Rain
7:13 AM 55.4 °F - 55.4 °F 100% 29.63 in 5.0 mi SW 8.1 mph - 0.03 in Rain Rain
7:33 AM 53.6 °F - 53.6 °F 100% 29.63 in 7.0 mi WSW 9.2 mph - 0.06 in Rain Rain
7:53 AM 53.6 °F - 51.8 °F 94% 29.63 in 10.0 mi WSW 10.4 mph - 0.08 in Rain Light Rain
8:14 AM 51.8 °F - 51.8 °F 100% 29.63 in 10.0 mi West 11.5 mph - 0.03 in Rain Light Rain
8:33 AM 51.8 °F - 51.8 °F 100% 29.65 in 10.0 mi West 13.8 mph - 0.06 in Rain Rain
8:53 AM 51.8 °F - 51.8 °F 100% 29.65 in 10.0 mi West 13.8 mph 19.6 mph 0.10 in Rain Light Rain
9:13 AM 51.8 °F - 51.8 °F 100% 29.64 in 10.0 mi WNW 13.8 mph - 0.02 in Rain Light Rain
9:33 AM 51.8 °F - 50.0 °F 94% 29.66 in 10.0 mi West 15.0 mph - 0.02 in Rain Light Rain
9:53 AM 51.8 °F - 50.0 °F 94% 29.67 in 7.0 mi West 16.1 mph 24.2 mph 0.03 in   Drizzle
10:13 AM 51.8 °F - 50.0 °F 94% 29.69 in 10.0 mi West 15.0 mph 24.2 mph 0.01 in Rain Light Rain
10:33 AM 51.8 °F - 50.0 °F 94% 29.70 in 7.0 mi West 19.6 mph 23.0 mph 0.02 in Rain Light Rain
10:53 AM 51.8 °F - 50.0 °F 94% 29.71 in 7.0 mi West 17.3 mph 24.2 mph 0.02 in Rain Light Rain
11:13 AM 53.6 °F - 51.8 °F 94% 29.71 in 10.0 mi West 23.0 mph 32.2 mph N/A   Mostly Cloudy
11:33 AM 53.6 °F - 51.8 °F 94% 29.72 in 10.0 mi West 19.6 mph 25.3 mph N/A   Mostly Cloudy
11:53 AM 53.6 °F - 51.8 °F 94% 29.72 in 10.0 mi West 17.3 mph 28.8 mph N/A   Mostly Cloudy
12:13 PM 53.6 °F - 51.8 °F 94% 29.73 in 10.0 mi West 13.8 mph 27.6 mph N/A   Mostly Cloudy
12:33 PM 53.6 °F - 50.0 °F 88% 29.74 in 10.0 mi West 19.6 mph 25.3 mph N/A   Overcast
12:53 PM 53.6 °F - 48.2 °F 82% 29.75 in 10.0 mi West 17.3 mph 25.3 mph N/A   Overcast
1:13 PM 53.6 °F - 50.0 °F 88% 29.76 in 10.0 mi West 19.6 mph 28.8 mph N/A   Overcast
1:33 PM 55.4 °F - 48.2 °F 77% 29.76 in 10.0 mi West 23.0 mph 27.6 mph N/A   Mostly Cloudy
1:54 PM 55.4 °F - 48.2 °F 77% 29.77 in 10.0 mi West 15.0 mph 26.5 mph N/A   Overcast
2:13 PM 53.6 °F - 48.2 °F 82% 29.77 in 10.0 mi West 15.0 mph 26.5 mph N/A   Overcast
2:33 PM 53.6 °F - 48.2 °F 82% 29.78 in 10.0 mi West 17.3 mph 26.5 mph N/A   Overcast
2:53 PM 53.6 °F - 48.2 °F 82% 29.79 in 10.0 mi West 17.3 mph 24.2 mph N/A   Overcast
3:13 PM 55.4 °F - 48.2 °F 77% 29.79 in 10.0 mi West 16.1 mph 21.9 mph N/A   Scattered Clouds
3:33 PM 55.4 °F - 44.6 °F 67% 29.80 in 10.0 mi West 20.7 mph 28.8 mph N/A   Mostly Cloudy
3:53 PM 55.4 °F - 44.6 °F 67% 29.81 in 10.0 mi West 18.4 mph 27.6 mph N/A   Mostly Cloudy
4:14 PM 57.2 °F - 44.6 °F 63% 29.81 in 10.0 mi West 15.0 mph 25.3 mph N/A   Mostly Cloudy
4:33 PM 55.4 °F - 42.8 °F 63% 29.82 in 10.0 mi West 17.3 mph 29.9 mph N/A   Scattered Clouds
4:53 PM 57.2 °F - 44.6 °F 63% 29.82 in 10.0 mi WNW 17.3 mph 23.0 mph N/A   Scattered Clouds
5:13 PM 57.2 °F - 44.6 °F 63% 29.83 in 10.0 mi WNW 17.3 mph 20.7 mph N/A   Clear
5:33 PM 57.2 °F - 42.8 °F 59% 29.84 in 10.0 mi WNW 15.0 mph 23.0 mph N/A   Clear
5:54 PM 57.2 °F - 42.8 °F 59% 29.86 in 10.0 mi WNW 15.0 mph 20.7 mph N/A   Clear
6:13 PM 57.2 °F - 42.8 °F 59% 29.87 in 10.0 mi WNW 12.7 mph 16.1 mph N/A   Clear
6:33 PM 55.4 °F - 42.8 °F 63% 29.87 in 10.0 mi West 6.9 mph - N/A   Clear
6:53 PM 53.6 °F - 42.8 °F 67% 29.88 in 10.0 mi West 3.5 mph - N/A   Clear
7:13 PM 53.6 °F - 44.6 °F 72% 29.88 in 10.0 mi Calm Calm - N/A   Clear
7:33 PM 51.8 °F - 44.6 °F 76% 29.88 in 10.0 mi South 4.6 mph - N/A   Clear
7:53 PM 51.8 °F - 44.6 °F 76% 29.89 in 10.0 mi SSE 4.6 mph - N/A   Clear
8:13 PM 50.0 °F - 44.6 °F 82% 29.89 in 10.0 mi SSE 4.6 mph - N/A   Clear
8:33 PM 48.2 °F - 44.6 °F 87% 29.89 in 10.0 mi Calm Calm - N/A   Clear
8:53 PM 48.2 °F - 44.6 °F 87% 29.89 in 10.0 mi SSE 3.5 mph - N/A   Clear
9:13 PM 48.2 °F - 44.6 °F 87% 29.89 in 10.0 mi SSE 4.6 mph - N/A   Clear
9:33 PM 46.4 °F 44.3 °F 44.6 °F 93% 29.89 in 10.0 mi South 4.6 mph - N/A   Clear
9:53 PM 44.6 °F 40.7 °F 42.8 °F 93% 29.89 in 10.0 mi South 6.9 mph - N/A   Clear
10:13 PM 46.4 °F 45.2 °F 42.8 °F 87% 29.89 in 10.0 mi South 3.5 mph - N/A   Clear
10:33 PM 46.4 °F 45.2 °F 42.8 °F 87% 29.89 in 10.0 mi SSW 3.5 mph - N/A   Scattered Clouds
10:53 PM 46.4 °F 44.3 °F 42.8 °F 87% 29.90 in 10.0 mi SSW 4.6 mph - N/A   Clear
11:13 PM 46.4 °F 45.2 °F 42.8 °F 87% 29.90 in 10.0 mi SSW 3.5 mph - N/A   Clear
11:34 PM 46.4 °F 43.5 °F 42.8 °F 87% 29.90 in 10.0 mi SSW 5.8 mph - N/A   Clear
11:53 PM 46.4 °F 44.3 °F 42.8 °F 87% 29.90 in 10.0 mi SSW 4.6 mph - N/A   Clear